Flag for Norway

Past Weather in Oslo, Norway — Yesterday and Last 2 Weeks

Currently: 5 °F. Clear. (Weather station: Oslo Gardermoen Airport, Norway). See more current weather

Past Weather in Oslo — Graph

°F

Oslo Temperature Yesterday

Maximum temperature yesterday: 14 °F (at 2:20 pm)
Minimum temperature yesterday: 1 °F (at 8:20 am)
Average temperature yesterday: 7 °F

High & Low Weather Summary for the Past Weeks

 TemperatureHumidityPressure
High32 °F (Jan 10, 4:20 am)100% (Jan 1, 12:20 am)30.51 "Hg (Jan 1, 12:20 am)
Low1 °F (Jan 15, 8:20 am)73% (Jan 14, 1:20 am)29.15 "Hg (Jan 12, 1:20 pm)
Average19 °F90%30.02 "Hg
* Reported Jan 1 12:20 am — Jan 16 12:50 am, Oslo. Weather by CustomWeather, © 2021

Note: Actual official high and low records may vary slightly from our data, if they occured in-between our weather recording intervals... More about our weather records

Oslo Weather History for the Previous 24 Hours

Scroll right to see more
 ConditionsComfort  
Time TempWeatherWind HumidityBarometerVisibility
12:50 am
Sat, Jan 16
5 °FClear.5 mph92%30.30 "Hg10 mi
12:20 am1 °FClear.5 mph92%30.30 "Hg10 mi
11:50 pm
Fri, Jan 15
5 °FPassing clouds.2 mph85%30.30 "HgN/A
11:20 pm9 °FClear.3 mph92%30.33 "Hg10 mi
10:50 pm3 °FClear.2 mph85%30.33 "Hg10 mi
10:20 pm3 °FPassing clouds.3 mph85%30.33 "HgN/A
9:50 pm3 °FPassing clouds.2 mph92%30.33 "HgN/A
9:20 pm5 °FPassing clouds.2 mph92%30.33 "HgN/A
8:20 pm7 °FPassing clouds.2 mph85%30.33 "HgN/A
7:50 pm7 °FPassing clouds.2 mph92%30.33 "HgN/A
7:20 pm7 °FPassing clouds.3 mph85%30.33 "HgN/A
6:50 pm5 °FPassing clouds.3 mph92%30.33 "Hg4 mi
6:20 pm7 °FPassing clouds.2 mph92%30.33 "Hg4 mi
5:50 pm9 °FSleet. Passing clouds.1 mph92%30.33 "HgN/A
5:20 pm10 °FClear.1 mph85%30.33 "Hg10 mi
4:50 pm12 °FClear.5 mph92%30.33 "Hg10 mi
4:20 pm10 °FClear.7 mph92%30.33 "Hg10 mi
3:50 pm12 °FClear.6 mph92%30.33 "Hg10 mi
3:20 pm12 °FSunny.5 mph92%30.33 "Hg10 mi
2:50 pm12 °FSunny.1 mph85%30.33 "Hg10 mi
2:20 pm14 °FSunny.2 mph92%30.33 "Hg10 mi
1:50 pm12 °FSunny.3 mph92%30.33 "Hg10 mi
1:20 pm12 °FSunny.5 mph85%30.33 "Hg10 mi
12:50 pm12 °FSunny.3 mph85%30.33 "Hg10 mi
12:20 pm10 °FPassing clouds.5 mph92%30.33 "HgN/A
11:50 am12 °FPassing clouds.2 mph85%30.36 "HgN/A
11:20 am9 °FSunny.1 mph85%30.33 "Hg10 mi
10:50 am7 °FSunny.2 mph85%30.33 "Hg10 mi
10:20 am3 °FSunny.3 mph92%30.33 "Hg10 mi
9:50 am3 °FSunny.2 mph85%30.33 "Hg10 mi
9:20 am5 °FSunny.2 mph92%30.33 "Hg10 mi
8:50 am5 °FClear.2 mph85%30.33 "Hg10 mi
8:20 am1 °FClear.3 mph85%30.30 "Hg10 mi
7:20 am3 °FClear.2 mph92%30.30 "Hg10 mi
6:50 am5 °FClear.No wind85%30.30 "Hg10 mi
6:20 am3 °FPassing clouds.2 mph92%30.30 "HgN/A
5:50 am3 °FPassing clouds.3 mph92%30.30 "HgN/A
5:20 am3 °FPassing clouds.2 mph92%30.30 "HgN/A
4:50 am3 °FPassing clouds.3 mph92%30.30 "HgN/A
4:20 am3 °FClear.3 mph92%30.30 "Hg10 mi
3:50 am5 °FClear.2 mph92%30.30 "Hg10 mi
3:20 am5 °FClear.3 mph92%30.30 "Hg10 mi
2:50 am7 °FClear.6 mph92%30.30 "Hg10 mi
2:20 am7 °FClear.5 mph85%30.30 "Hg10 mi
1:50 am9 °FClear.3 mph92%30.30 "Hg10 mi
1:20 am9 °FClear.5 mph85%30.30 "Hg10 mi
Weather by CustomWeather, © 2021

See weather overview